Location: ???? ????
(41.4149°N, 22.8816°E)
Time: 14:56:13
(UTC+00:00)

Cosmos 1697 Rocket - Pass Details

Date: 14 July 2020
Orbit: 833 x 842 km, 71.0° (Epoch: 03 August)

Event Time Altitude Azimuth Distance (km) Brightness Sun altitude
Rises 02:11:55 0° 318° (NW) 3,391 5.8 -9.3°
Reaches altitude 10° 02:15:16 10° 298° (WNW) 2,450 4.9 -8.9°
Maximum altitude 02:18:35 16° 262° (W) 2,036 4.2 -8.4°
Drops below altitude 10° 02:21:54 10° 225° (SW) 2,437 4.4 -7.9°
Enters shadow 02:22:16 - 222° (SW) 2,521 4.5 -7.8°
